CYZG

Salluit Airport

ICAO Code CYZG
IATA Code YZG
Name Salluit Airport
Location Salluit, Quebec, CA
Elevation 745 Feet / 227.1 Meters
Latitude 62.17944444
Longitude -75.66722222
METAR CYZG 130300Z AUTO 03008KT 08/04 A2961
Extra information Display Charts
Runway Length Width Surface Elevation
03 3523 ft 100 ft GRAVEL 723 ft
21 3523 ft 100 ft GRAVEL 745 ft